RH
4 5 5 4 7 8 8 8 9 11 10 11 12 10 12 14 18 18 24 31 27 28 31 29 28 28 31 37 40 41 41 41 42 44 46 45 46 49 49 51 51 52 54 56 58 59 59 57 54 52 50 47 47 51 53 53 52 51 52 53 51 51 52 51 50 48 46 45 43 42 42 41 39 40 43 48 45 40 38 35 33 31 29 27 23 22 23 21 21 22 18 12 11 11 11 10 10
4 6 6 5 7 8 9 8 11 12 11 12 11 10 13 14 17 18 21 28 28 28 31 32 34 31 29 32 33 35 42 45 42 42 45 48 51 52 50 51 49 50 53 54 56 57 59 56 54 50 47 47 46 47 50 52 54 54 54 55 55 54 56 55 53 51 48 47 45 42 42 43 41 40 42 48 50 44 40 37 35 33 30 28 24 21 21 20 21 22 19 14 11 11 10 10 10
5 8 7 7 8 8 9 10 13 12 12 13 12 15 17 16 18 22 23 25 28 26 27 31 33 31 28 30 31 33 43 46 43 43 47 50 50 51 50 50 49 50 52 52 52 53 55 54 51 46 43 44 43 42 45 50 54 55 55 56 57 54 54 54 53 53 52 50 47 43 41 42 43 42 41 45 51 49 42 38 36 35 31 28 25 22 20 20 21 23 22 17 11 10 10 11 12
6 9 9 9 8 9 10 12 16 14 12 12 15 19 20 21 22 25 28 27 26 24 24 25 27 27 26 30 31 33 40 43 43 44 49 50 47 50 50 48 49 50 50 48 47 49 51 50 46 42 39 40 41 40 41 45 49 52 53 55 55 50 48 49 51 52 55 54 50 45 40 40 42 44 43 43 48 51 46 42 40 36 32 29 26 23 21 20 22 23 24 20 13 9 11 15 18
8 10 10 10 10 10 11 12 14 14 13 13 19 24 25 31 31 28 31 31 28 27 26 23 23 24 24 26 27 33 39 39 39 41 47 49 47 49 49 47 48 48 45 44 43 44 44 42 39 36 35 36 39 39 39 40 42 46 50 53 52 49 45 45 46 49 54 56 53 49 43 41 40 43 45 43 45 50 48 45 45 40 34 30 26 24 21 19 21 24 24 22 16 10 12 19 22
10 11 10 10 11 11 13 15 14 13 12 11 20 27 30 35 36 32 31 32 29 28 26 24 24 24 27 28 28 34 37 34 33 37 40 42 46 48 48 48 47 45 43 42 42 41 38 35 33 31 31 33 36 37 38 38 39 41 45 52 53 48 43 41 43 45 48 50 51 50 47 43 39 39 44 44 41 42 45 46 47 46 41 34 28 25 21 17 19 24 24 22 18 11 16 23 24
11 11 10 10 11 12 16 17 14 14 11 11 16 19 25 32 34 34 31 30 29 27 26 25 25 25 29 30 33 35 33 30 29 31 32 33 42 44 45 45 43 42 41 42 42 41 37 34 32 32 32 33 34 36 37 38 39 39 41 50 53 46 42 42 43 43 43 45 48 48 46 46 41 39 43 46 42 35 36 41 44 46 46 40 32 26 21 17 16 23 24 22 20 13 18 26 26
11 11 10 11 12 12 15 16 14 14 12 11 14 14 23 32 33 33 33 31 30 28 26 26 24 28 32 31 38 37 31 29 26 28 28 30 38 41 40 39 38 39 40 42 41 40 37 34 34 33 32 31 33 36 38 39 40 40 39 46 49 46 46 46 46 47 46 46 46 46 45 46 44 40 43 45 45 37 30 33 38 41 41 38 35 27 21 17 15 22 23 21 21 14 15 24 26
10 11 11 12 14 14 14 14 12 12 11 9 15 17 22 31 34 33 34 31 29 26 26 26 22 30 36 34 39 37 31 29 26 28 28 29 34 34 35 35 35 37 40 41 40 38 36 34 33 33 32 31 33 36 39 38 39 40 39 43 46 49 51 49 50 50 50 50 50 47 46 47 44 42 45 44 44 42 36 32 33 36 34 34 34 28 22 19 16 21 23 18 21 18 11 17 24
10 12 12 13 15 16 15 14 11 11 9 9 16 20 21 28 33 34 32 29 27 25 26 24 22 30 35 35 38 34 31 29 27 29 28 28 29 28 30 32 35 37 38 39 38 35 33 33 32 32 33 33 34 35 36 36 36 38 39 42 44 49 53 51 55 54 49 50 54 52 47 48 47 44 46 45 42 43 43 39 34 31 29 28 29 28 23 20 18 21 23 17 21 21 10 14 24
11 12 13 14 16 17 17 15 13 11 10 11 16 20 24 27 29 31 29 27 26 26 25 24 25 29 30 34 36 33 31 29 29 30 29 29 27 26 27 30 33 35 36 36 33 31 30 31 31 31 32 34 35 34 34 33 33 35 38 41 43 48 51 48 50 53 50 49 54 55 50 49 49 45 45 44 44 46 48 46 39 30 27 24 24 26 23 20 20 22 22 18 22 23 12 15 25
12 13 13 16 19 18 18 17 14 14 12 13 15 17 22 23 24 27 25 25 26 25 24 22 25 27 28 33 35 34 31 30 29 30 29 28 26 26 26 26 29 31 32 31 29 27 27 28 28 28 29 31 33 33 33 32 32 33 36 39 42 45 46 43 42 47 49 51 55 55 52 51 50 47 47 45 46 50 50 49 45 34 27 25 23 25 24 20 19 21 22 18 22 25 16 15 24
13 14 14 16 19 18 17 16 15 16 14 12 14 15 16 19 23 25 23 25 25 23 21 21 24 25 27 32 34 33 30 29 28 27 28 27 25 25 24 24 26 28 29 28 27 25 25 24 24 25 27 29 31 31 33 34 33 32 35 36 37 41 43 41 41 45 47 52 56 56 53 51 50 48 49 47 47 53 49 47 47 38 29 25 23 25 24 22 19 19 20 17 20 26 20 16 23
13 14 15 17 17 17 16 15 15 16 15 12 14 16 16 20 24 26 24 25 25 22 22 23 23 23 26 30 34 32 29 28 25 23 24 25 25 24 24 24 25 27 28 28 26 25 24 22 22 24 25 26 27 29 34 35 33 33 34 35 33 37 44 44 43 45 48 52 56 58 53 49 48 48 49 46 46 53 51 47 48 41 31 24 23 24 24 22 21 18 17 16 17 26 25 17 22
14 15 16 17 16 17 15 16 17 17 15 13 16 18 18 21 25 27 25 23 26 24 23 24 21 23 27 30 34 32 29 27 24 22 21 23 25 25 24 24 24 26 28 28 28 26 25 23 22 22 23 23 24 28 33 34 34 33 33 35 34 34 40 45 46 46 47 51 54 57 54 50 49 48 48 45 44 52 53 51 50 44 33 25 23 23 22 21 21 19 17 15 15 23 28 19 19
14 15 16 16 16 16 17 18 18 17 16 14 17 19 19 23 25 27 26 24 27 26 23 24 21 23 27 29 32 31 29 27 24 22 21 22 23 24 24 24 24 24 26 27 27 27 26 25 24 22 22 22 22 26 30 32 33 33 32 34 36 34 34 39 46 48 47 48 53 55 54 52 51 50 47 44 45 52 55 56 54 47 38 29 24 22 21 18 19 20 17 15 13 20 29 24 19
14 15 15 16 16 16 18 20 18 17 17 16 18 20 21 24 26 27 28 27 27 26 25 25 21 23 28 28 30 30 28 26 24 22 20 22 22 23 24 23 23 23 23 24 25 26 27 27 26 24 23 22 22 24 28 31 33 33 31 31 34 35 33 34 39 44 47 47 50 52 52 53 52 51 47 43 45 53 57 57 56 50 41 33 27 22 20 17 17 19 18 14 12 18 28 27 20
14 16 15 16 17 17 19 20 17 17 18 20 22 22 23 25 28 27 28 29 27 26 27 26 24 26 28 28 30 29 27 25 22 21 20 23 23 22 23 23 23 22 22 21 21 22 23 26 27 26 25 24 24 24 28 32 35 33 30 30 32 34 35 36 36 40 44 44 45 45 46 48 49 50 49 44 45 54 60 60 61 56 45 35 29 25 22 18 17 19 18 14 12 17 26 28 23
14 16 16 15 16 18 20 18 16 17 19 21 23 24 24 25 27 28 30 32 29 28 28 26 25 27 28 28 29 28 26 24 22 19 20 23 22 22 22 22 22 22 21 22 21 21 22 23 25 26 26 25 24 25 28 32 36 34 29 28 30 33 34 37 38 40 41 40 41 42 43 43 45 46 49 49 48 53 60 64 65 64 52 37 30 28 24 19 17 18 16 14 14 16 23 27 24
14 15 16 15 16 19 19 16 16 17 18 20 23 24 24 25 26 29 31 34 31 28 27 25 26 27 27 28 27 27 26 24 21 19 22 24 23 22 22 23 23 23 22 22 21 23 25 23 23 24 24 24 24 25 26 30 35 35 30 26 27 31 34 36 38 39 39 41 41 40 42 44 46 46 47 53 55 54 56 64 68 69 62 46 34 29 26 19 16 17 14 13 16 17 19 22 22
14 14 14 14 16 18 17 16 17 18 18 18 22 23 24 25 26 29 29 30 31 28 25 24 26 26 26 25 25 25 23 22 20 19 23 23 22 22 22 22 23 24 24 22 21 23 24 24 23 22 21 22 24 25 26 28 32 35 33 28 25 27 32 34 36 38 39 41 41 40 42 46 48 50 51 54 59 59 58 60 65 70 69 59 43 33 28 22 16 15 13 13 16 17 18 19 18
13 13 12 12 15 17 17 18 18 18 18 18 20 22 24 24 25 27 26 25 27 26 24 23 24 25 24 22 22 22 20 19 20 21 23 21 21 22 22 22 22 22 22 21 21 21 21 21 22 21 20 22 24 24 26 27 30 33 33 31 28 26 30 33 34 36 39 40 42 45 47 49 51 54 56 55 58 63 64 61 61 66 71 68 57 43 33 26 22 19 14 12 15 19 21 21 19
13 13 11 13 14 16 18 20 20 18 18 20 20 20 23 24 25 26 23 21 23 24 24 22 22 21 21 21 20 19 19 20 22 24 24 20 19 21 21 21 20 20 20 19 20 19 20 20 20 20 19 19 23 23 23 25 28 30 30 31 32 29 29 33 34 34 38 42 44 48 51 53 56 59 60 60 60 63 67 66 62 63 68 71 66 56 44 32 28 26 21 16 17 21 24 23 21
14 12 12 13 14 16 16 18 19 18 19 21 21 22 23 24 24 24 24 20 20 23 23 23 22 21 21 21 19 18 19 21 23 24 24 21 20 20 21 20 18 18 18 17 16 17 18 18 19 20 20 19 21 24 23 23 26 29 28 29 33 33 29 30 32 33 37 42 44 48 52 55 59 62 63 66 66 66 68 68 67 65 66 70 69 65 57 41 32 29 26 24 21 21 22 24 24
15 13 13 14 14 15 15 16 17 18 20 20 22 25 24 25 24 23 25 22 20 23 24 24 23 23 24 21 19 20 21 22 23 24 24 23 22 21 21 19 18 16 15 14 13 14 15 17 18 19 20 20 20 24 25 24 25 27 29 29 31 35 34 31 32 33 35 41 45 47 50 52 55 59 62 67 71 71 71 70 72 72 70 68 66 67 64 49 38 32 28 26 24 22 21 23 23
15 14 14 15 15 15 15 16 17 17 18 17 19 22 22 24 24 23 25 22 21 23 24 23 23 24 24 21 20 22 22 22 23 23 23 22 22 21 21 19 18 16 14 13 11 13 15 17 18 18 18 20 22 25 25 24 24 25 27 30 30 32 36 36 36 35 34 37 43 46 48 50 51 55 59 64 70 74 75 74 74 75 75 70 66 71 69 57 45 38 32 28 26 24 23 23 24
14 14 15 15 14 15 15 16 16 17 16 16 16 19 21 24 25 23 22 21 22 23 23 22 22 21 21 21 22 23 22 22 22 22 21 21 21 21 21 19 17 16 14 13 12 13 16 18 19 19 19 21 23 25 26 24 24 24 25 29 30 30 33 36 37 39 39 39 41 44 46 49 51 53 57 61 66 72 75 77 77 76 76 72 70 76 77 68 56 47 40 33 29 27 26 25 25
14 14 15 15 15 15 15 16 15 15 17 18 18 19 22 24 23 21 19 20 20 21 22 21 19 18 18 22 24 22 21 21 21 22 20 20 21 20 19 18 16 16 14 12 12 13 16 18 18 19 20 23 24 25 25 24 24 24 23 26 28 28 31 33 35 40 44 43 43 45 47 49 51 52 55 59 63 70 73 76 80 79 78 77 78 82 83 78 68 57 49 41 34 31 28 27 25
15 15 15 16 16 16 16 16 14 14 17 18 18 17 21 23 21 21 21 19 19 21 21 20 18 17 19 22 23 21 21 20 20 20 20 19 19 19 17 17 16 16 15 13 12 13 14 16 17 18 21 24 25 25 26 25 24 24 23 23 25 26 28 29 31 38 46 47 45 47 49 51 52 51 54 57 61 66 71 78 83 82 82 83 85 89 88 84 78 68 59 51 44 38 31 27 25
15 15 16 17 17 17 16 16 15 14 14 14 14 15 18 19 17 20 22 19 19 22 22 20 18 18 19 21 21 21 19 18 18 18 18 18 18 17 17 17 17 16 15 13 12 13 14 16 17 19 23 26 26 26 26 26 25 24 23 21 20 21 23 24 24 30 41 46 46 48 51 53 54 53 54 58 60 63 70 81 85 83 82 83 86 91 92 89 84 78 70 58 52 48 39 31 26
16 16 18 18 16 18 17 16 15 14 14 14 14 17 17 17 15 16 20 20 19 22 24 21 19 18 18 19 20 21 20 18 19 19 19 20 19 18 17 17 17 16 15 13 13 13 14 17 19 20 23 25 25 25 25 24 24 23 22 19 17 16 17 21 22 23 30 38 42 46 52 55 56 57 58 60 61 62 69 80 84 81 82 85 86 88 92 93 89 85 80 66 56 53 47 39 31
18 17 21 22 17 17 17 15 16 15 15 15 15 18 18 18 17 15 16 19 20 21 22 21 19 19 20 21 22 22 21 20 20 20 21 21 21 19 19 19 18 18 17 16 15 15 14 15 16 17 21 25 24 23 22 20 22 21 18 18 17 15 16 18 20 20 22 28 34 37 44 51 55 59 60 61 63 65 67 73 80 80 82 86 87 87 89 93 91 87 86 78 66 57 50 43 38
22 18 20 21 17 16 16 15 15 15 16 17 16 19 20 20 19 16 16 17 18 19 19 19 20 20 21 22 23 23 21 21 20 21 22 22 22 21 21 20 20 21 20 19 19 18 16 13 13 13 17 20 20 18 18 18 18 16 15 19 21 20 18 17 18 22 20 21 24 26 33 43 53 59 60 61 64 67 66 68 76 79 81 84 85 86 87 89 88 86 86 84 77 67 56 48 44
25 23 19 21 19 17 18 18 17 16 16 17 17 19 21 22 20 18 19 17 16 17 17 19 21 21 22 24 23 23 22 21 20 21 22 22 22 23 22 21 22 23 23 22 21 19 17 15 12 12 13 14 14 14 17 17 15 13 15 20 20 18 19 17 18 22 20 18 18 19 24 33 44 50 52 54 59 67 69 68 74 78 77 80 82 82 82 83 84 84 86 85 80 73 66 61 53
24 27 24 24 23 20 21 21 19 17 16 17 18 19 21 24 23 20 20 20 18 18 19 20 21 21 22 24 24 23 23 22 22 22 23 23 23 23 22 22 24 26 25 25 23 18 16 15 12 11 12 12 12 15 17 16 15 14 16 18 15 14 17 19 21 23 21 18 14 15 19 25 31 36 39 42 46 56 62 63 73 80 78 77 77 76 76 78 81 83 82 83 83 77 73 71 63
25 29 30 29 26 25 26 24 23 21 18 19 20 19 21 24 26 24 21 21 19 18 21 21 22 22 23 25 25 25 25 24 24 24 24 24 24 24 24 24 25 27 27 26 25 20 18 17 14 12 12 12 14 15 17 17 17 16 16 15 13 12 13 16 18 21 19 15 12 12 15 17 20 24 29 34 35 40 45 48 59 72 76 77 75 73 73 74 77 80 79 79 84 83 80 78 69
27 28 32 33 31 30 30 28 27 26 21 23 24 22 22 25 29 29 25 25 25 24 27 27 25 23 23 25 26 25 25 25 26 27 26 26 26 26 25 25 25 28 28 27 25 23 21 19 18 16 14 14 15 16 17 19 18 17 16 14 13 12 11 11 12 14 13 11 10 10 11 11 11 13 17 22 25 28 33 36 41 51 61 69 73 76 77 73 72 74 75 76 82 86 87 85 78
32 30 30 32 33 31 32 36 36 33 29 29 30 26 25 27 29 30 28 28 30 30 32 33 29 26 25 25 26 26 26 28 29 29 29 28 28 27 25 25 26 27 27 27 26 24 22 21 21 20 17 15 17 19 19 19 18 16 14 14 14 13 12 11 10 11 10 10 10 10 9 9 9 10 10 10 13 16 21 26 31 35 42 49 57 66 72 73 74 74 73 73 78 84 86 85 84
39 37 32 33 35 33 36 44 46 45 40 37 36 30 28 32 31 31 30 29 29 28 29 30 28 27 26 26 27 28 29 31 31 32 31 30 30 27 25 26 26 27 27 27 27 25 22 21 21 22 20 17 18 20 20 19 18 16 14 14 15 15 13 13 12 12 11 11 11 10 10 10 10 10 10 10 10 11 13 16 20 24 27 32 37 44 51 59 67 71 73 74 75 78 80 79 82
42 41 37 36 38 36 39 45 49 51 48 44 42 36 35 38 35 32 32 30 30 30 31 29 26 26 25 25 28 30 31 32 33 33 33 33 31 27 25 26 26 26 26 26 26 24 22 22 22 23 21 17 18 20 20 20 19 16 15 15 16 16 15 14 13 13 13 13 12 11 11 11 10 10 11 12 13 14 14 15 17 18 17 20 24 28 32 37 43 50 58 65 71 77 79 75 74
45 43 40 39 40 40 42 45 48 52 52 51 48 45 47 45 37 34 34 33 32 33 36 33 27 25 24 23 25 30 31 31 33 34 34 33 29 24 24 26 26 26 26 25 25 24 23 23 24 23 20 17 17 19 21 22 19 16 15 16 16 17 16 15 14 15 14 14 14 13 12 11 10 9 10 12 14 15 15 18 20 20 17 15 16 17 20 24 28 32 36 42 52 65 74 77 76
44 46 43 41 42 44 46 48 50 50 50 50 46 48 56 50 40 37 35 35 34 34 36 34 27 24 23 22 23 28 30 30 32 33 34 33 27 23 25 26 25 24 25 25 25 24 24 24 25 24 19 17 17 17 20 21 19 15 15 16 17 17 17 17 16 16 16 16 15 15 14 13 12 10 10 10 12 14 15 17 19 21 20 18 16 16 17 18 21 24 27 29 33 40 50 62 69
41 45 45 43 43 45 47 50 50 50 49 48 45 45 50 46 38 37 36 36 34 32 34 32 26 24 23 22 23 26 28 30 32 33 33 30 25 23 24 25 24 23 25 27 26 25 24 24 26 24 19 17 18 17 18 20 20 17 17 18 18 18 18 18 18 18 17 17 17 17 16 15 14 13 12 12 12 13 14 16 17 19 19 19 19 18 19 20 20 22 24 26 27 28 31 37 45
41 42 42 41 41 42 46 47 48 50 48 48 48 42 41 40 33 32 33 34 33 30 30 30 28 26 24 23 24 25 27 28 30 33 31 27 23 22 22 22 23 23 26 27 27 26 25 25 27 24 20 17 18 18 18 20 20 18 18 19 19 19 19 19 20 19 18 18 18 18 17 17 16 15 15 14 13 13 13 14 15 15 16 16 17 18 20 21 23 25 26 27 27 27 28 28 29
41 42 37 36 40 43 46 46 46 49 45 47 52 44 39 38 31 29 31 30 30 28 28 31 31 29 26 24 24 26 27 27 29 30 27 24 22 21 21 22 22 24 27 28 28 27 25 26 27 25 21 19 18 18 18 19 21 20 19 20 20 20 20 21 21 20 18 18 18 17 18 17 17 16 16 16 15 15 14 14 14 13 13 13 13 14 16 18 21 24 27 29 29 28 28 27 27
39 38 33 34 40 42 44 43 43 47 45 42 45 40 36 35 27 26 29 28 30 32 32 32 31 32 32 29 28 30 30 27 26 25 24 23 22 22 22 23 25 27 28 28 29 28 28 28 29 25 22 20 19 18 19 20 23 22 21 21 21 21 22 22 21 21 19 18 17 17 17 17 17 17 16 16 16 16 16 15 15 15 14 14 13 12 12 13 15 18 22 25 28 29 29 28 28
34 31 30 36 41 40 41 42 36 39 43 38 34 33 35 35 28 24 27 28 31 34 34 32 29 32 34 33 31 32 31 27 25 26 25 25 26 26 25 25 27 29 29 28 30 32 32 31 30 28 24 21 20 19 20 22 24 23 22 22 22 22 22 22 22 22 21 19 18 17 16 16 16 16 16 16 15 15 15 15 15 16 16 16 15 15 13 13 12 12 14 16 20 24 27 28 28
31 30 31 36 41 42 43 42 33 35 42 38 33 35 37 37 30 25 27 32 37 39 39 37 36 35 35 35 34 34 34 30 27 27 28 28 30 32 32 31 30 30 31 30 30 30 31 31 31 29 25 23 22 21 22 25 27 27 25 24 23 23 24 23 24 23 22 20 18 17 17 16 16 16 16 16 16 15 15 15 15 15 16 16 16 16 15 15 14 13 12 12 13 15 18 21 23
30 30 34 36 38 40 44 43 36 34 36 32 33 36 38 38 31 26 31 36 41 45 45 44 45 41 39 39 38 36 34 32 29 28 28 32 34 35 37 37 35 34 34 32 31 30 31 31 30 27 25 26 26 26 25 26 28 28 28 26 25 25 26 25 25 24 22 20 18 18 17 17 16 16 16 16 15 15 15 15 16 16 16 16 16 16 15 15 15 15 15 14 13 13 13 14 15
29 30 36 39 40 41 45 47 40 35 32 31 35 36 37 39 35 33 38 40 43 47 47 46 46 45 43 42 40 36 34 33 32 31 31 34 36 39 40 40 38 36 36 35 33 32 32 33 32 30 28 28 29 28 26 27 28 27 27 27 26 26 27 26 25 23 22 21 20 19 19 17 17 17 16 16 16 15 15 16 16 17 17 16 15 15 16 16 16 16 15 15 15 15 14 13 13
38 36 36 40 46 47 49 49 44 41 40 39 40 39 41 41 38 41 44 43 45 47 47 46 45 45 44 44 44 40 37 37 37 36 35 36 39 42 43 41 38 37 38 38 37 36 35 35 35 34 32 32 31 28 25 25 26 28 28 27 26 26 27 26 24 23 23 22 21 21 20 19 18 18 17 16 16 16 16 16 17 17 17 16 17 17 16 16 16 16 15 15 15 14 14 14 14
47 42 36 39 46 49 50 50 49 49 49 47 43 42 45 42 39 43 45 47 48 48 49 49 48 48 46 46 47 45 44 44 43 41 38 39 42 43 43 43 41 39 40 41 41 39 39 37 35 33 33 33 33 31 27 23 24 27 28 27 26 27 27 26 25 24 24 24 23 23 22 21 20 20 19 18 18 18 18 18 18 19 19 18 18 17 17 17 16 16 15 15 15 14 13 14 14
51 47 41 41 44 46 48 51 53 52 50 50 44 40 42 39 37 42 44 47 48 47 48 50 51 51 49 49 48 46 47 49 50 49 47 47 46 45 44 43 42 41 42 44 44 42 42 42 38 35 34 33 34 34 31 27 25 26 28 27 27 28 27 26 26 25 25 25 25 24 23 22 22 21 20 20 19 20 20 20 20 20 19 19 19 18 18 18 17 17 17 16 16 15 14 14 14
45 47 47 48 48 50 52 55 59 57 55 53 46 41 40 38 39 44 43 44 46 46 47 48 50 50 49 49 45 44 47 51 53 54 55 54 50 44 42 42 42 41 41 45 47 47 47 46 44 41 38 35 35 35 34 30 27 27 27 27 27 28 26 25 26 26 26 26 26 25 24 23 23 22 21 20 20 20 21 21 21 20 19 19 19 19 19 19 18 17 17 17 17 17 15 14 14
39 42 47 50 52 55 55 56 59 59 58 56 49 42 38 36 39 41 38 40 43 46 46 47 48 46 44 45 45 45 47 50 52 50 48 49 47 44 41 38 39 39 40 45 49 49 49 49 49 47 42 38 38 38 37 33 30 29 29 29 28 27 25 24 26 25 25 25 25 25 24 24 24 23 22 21 21 21 22 21 20 20 19 19 20 20 20 20 19 19 18 18 18 18 17 16 15
43 42 42 44 47 49 49 50 51 53 56 55 50 44 38 37 39 38 37 39 39 42 43 44 44 42 41 42 45 48 49 49 49 47 44 45 48 49 47 44 42 40 40 43 47 50 51 50 49 49 46 41 39 40 40 36 34 32 31 30 29 28 26 26 26 25 25 25 26 26 25 25 24 23 22 21 21 22 22 22 21 20 20 20 21 22 23 22 22 23 23 23 22 21 19 18 17
49 49 49 47 45 44 45 46 44 48 55 58 57 51 42 40 39 38 40 43 42 42 44 46 44 41 40 41 41 45 47 47 47 46 46 46 49 53 54 55 53 50 48 46 47 49 50 50 49 49 50 45 40 41 41 39 37 35 34 33 33 32 31 30 30 29 28 28 27 26 25 25 24 23 22 21 22 23 22 21 20 20 21 22 23 24 25 25 24 25 26 26 27 26 24 22 20
49 50 50 48 47 45 47 49 48 49 53 56 59 53 43 40 41 43 47 50 48 46 45 47 47 45 45 45 44 44 45 45 45 45 46 47 48 50 49 51 56 59 59 57 56 55 53 52 50 49 50 48 45 44 42 42 40 36 35 36 36 36 35 35 35 35 33 31 29 27 27 27 25 25 24 23 23 23 21 20 19 20 22 23 24 26 26 25 25 25 27 27 28 28 27 25 24